Weather Roundup
Issued by NWS Chicago, IL

Home | Current Version | Previous Version | Graphics & Text | Print | Product List | Glossary On
Versions: 1 2 3 4 5 6 7 8 9 10 11 12 13 14 15 16 17 18 19 20 21 22 23 24 25 26 27 28 29 30 31 32 33 34 35 36 37 38 39 40 41 42 43 44 45 46 47 48 49 50
000
NZUS59 KLOT 300058
HRRLOT

CHICAGO AREA WEATHER ROUNDUP
NATIONAL WEATHER SERVICE CHICAGO/ROMEOVILLE IL
800 PM CDT FRI AUG 29 2014

NOTE: "FAIR" INDICATES FEW OR NO CLOUDS BELOW 12,000 FEET WITH NO
SIGNIFICANT WEATHER AND/OR OBSTRUCTIONS TO VISIBILITY.

* THESE STATIONS ARE NOT UNDER NWS QUALITY CONTROL. THEY ALSO MAY NOT
  REPORT WEATHER SUCH AS PRECIPITATION OR FOG.

ILZ005-006-012>014-019>023-300200-
NORTHEAST ILLINOIS

CITY           SKY/WX    TMP DP  RH WIND       PRES   REMARKS
OHARE          MOCLDY    80  68  66 S10       29.88S HX  83
MIDWAY         MOCLDY    82  72  71 SE14G24   29.88F HX  87
AURORA         PTCLDY    75  70  84 SE8       29.88S HAZE
WAUKEGAN       PTCLDY    76  71  85 SE15G25   29.88R
DUPAGE AIRPORT PTCLDY    79  71  76 SE8       29.88R HX  82
WHEELING       PTCLDY    80  72  76 SE7       29.89S HX  84
NORTHERLY IS     N/A     78  69  73 S12         N/A  HX  80
$$

WIZ051-052-058>065-066-070>072-300200-
SOUTHEAST WISCONSIN

CITY           SKY/WX    TMP DP  RH WIND       PRES   REMARKS
MILWAUKEE      PTCLDY    76  69  79 S14       29.87R
KENOSHA*       PTCLDY    77  72  84 S20       29.88R
RACINE*        PTCLDY    75  70  84 S14       29.89S
WAUKESHA       PTCLDY    75  70  83 SE8       29.87S
$$

INZ001>003-010>013-019-020-300200-
NORTHWEST INDIANA

CITY           SKY/WX    TMP DP  RH WIND       PRES   REMARKS
GARY*          MOCLDY    77  70  78 SE14      29.91S
MICHIGAN CITY* NOT AVBL
RENSSELAER*    NOT AVBL
$$

LMZ740>746-300200-
SOUTHERN LAKE MICHIGAN

STATION/POSITION TIME  SKY/WX   TEMP WIND        PRES    VSBY
                                AIR  DIR/SP/G
                 (UTC)          (F)  (DEG/KT/KT) (MB)    (MI)
HARRISON CRIB    0000            75  140/ 18/ 21   N/A
BURNHAM HARBOR   0000            76  130/ 10/ 13   N/A
CALUMET HARBOR   0000            78  150/  9/ 12 1011.4S
BURNS HARBOR     NOT AVBL
MICHIGAN CITY    0000            76  120/  9/ 13   N/A
$$

ABBREVIATIONS USED IN REMARKS
   TC - TEMPERATURE IN CELSIUS
  WCI - WIND CHILL INDEX
   HX - HEAT INDEX
  VSB - VISIBILITY
$$


USA.gov is the U.S. government's official web portal to all federal, state and local government web resources and services.